N612HS KMNF-KGWO

Flight info

Callsign N612HS
Flight time N/A
Altitude 7500
Route KMNF KGWO
Aircraft PA24/L-SDGRY/S

Departure

Time N/A
Airport Mountain View Airport (KMNF)

Arrival

Time 2026-04-26 22:35
Airport Greenwood–Leflore Airport (KGWO)
Time Latitude Longitude Altitude Speed Heading
2026-04-26 21:16 36.38865 -91.38122 7485 ft 154 kts 158°
2026-04-26 21:16 36.37879 -91.37611 7484 ft 153 kts 161°
2026-04-26 21:16 36.36919 -91.37080 7486 ft 153 kts 159°
2026-04-26 21:16 36.35983 -91.36445 7483 ft 154 kts 158°
2026-04-26 21:17 36.35025 -91.35841 7488 ft 154 kts 155°
2026-04-26 21:17 36.34066 -91.35249 7485 ft 154 kts 160°
2026-04-26 21:17 36.33104 -91.34666 7487 ft 154 kts 161°
2026-04-26 21:17 36.32152 -91.34072 7484 ft 153 kts 158°
2026-04-26 21:18 36.31203 -91.33463 7486 ft 153 kts 154°
2026-04-26 21:18 36.30248 -91.32857 7488 ft 154 kts 157°
2026-04-26 21:18 36.29286 -91.32268 7487 ft 154 kts 154°
2026-04-26 21:18 36.28335 -91.31633 7486 ft 155 kts 158°
2026-04-26 21:19 36.27387 -91.31034 7485 ft 156 kts 158°
2026-04-26 21:19 36.26423 -91.30422 7484 ft 155 kts 160°
2026-04-26 21:19 36.25447 -91.29860 7493 ft 155 kts 158°
2026-04-26 21:19 36.24457 -91.29307 7490 ft 157 kts 158°
2026-04-26 21:20 36.23473 -91.28715 7485 ft 157 kts 158°
2026-04-26 21:20 36.22490 -91.28133 7486 ft 157 kts 160°
2026-04-26 21:20 36.21521 -91.27514 7485 ft 157 kts 157°
2026-04-26 21:20 36.20539 -91.26929 7485 ft 156 kts 161°
2026-04-26 21:21 36.19586 -91.26321 7487 ft 157 kts 156°
2026-04-26 21:21 36.18635 -91.25662 7483 ft 156 kts 157°
2026-04-26 21:21 36.17634 -91.25096 7483 ft 156 kts 159°
2026-04-26 21:21 36.16665 -91.24469 7481 ft 157 kts 157°
2026-04-26 21:22 36.15700 -91.23820 7486 ft 159 kts 160°
2026-04-26 21:22 36.14682 -91.23277 7482 ft 159 kts 163°
2026-04-26 21:22 36.13678 -91.22796 7486 ft 156 kts 159°
2026-04-26 21:23 36.11704 -91.21683 7481 ft 155 kts 161°
2026-04-26 21:23 36.10701 -91.21167 7486 ft 157 kts 164°
2026-04-26 21:23 36.09667 -91.20652 7485 ft 156 kts 161°
2026-04-26 21:23 36.08666 -91.20108 7485 ft 158 kts 160°
2026-04-26 21:24 36.07659 -91.19584 7483 ft 156 kts 161°
2026-04-26 21:24 36.06654 -91.19082 7482 ft 156 kts 162°
2026-04-26 21:24 36.05657 -91.18543 7484 ft 157 kts 160°
2026-04-26 21:24 36.04648 -91.18016 7483 ft 157 kts 162°
2026-04-26 21:25 36.03645 -91.17486 7483 ft 157 kts 161°
2026-04-26 21:25 36.02642 -91.16959 7484 ft 157 kts 162°
2026-04-26 21:25 36.01632 -91.16432 7484 ft 157 kts 158°
2026-04-26 21:25 36.00633 -91.15872 7480 ft 158 kts 161°
2026-04-26 21:26 35.99633 -91.15333 7484 ft 157 kts 162°
2026-04-26 21:26 35.98636 -91.14833 7485 ft 156 kts 161°
2026-04-26 21:26 35.97638 -91.14292 7486 ft 158 kts 161°
2026-04-26 21:26 35.96634 -91.13747 7485 ft 157 kts 161°
2026-04-26 21:27 35.95631 -91.13216 7486 ft 157 kts 160°
2026-04-26 21:27 35.94626 -91.12680 7490 ft 156 kts 160°
2026-04-26 21:27 35.93628 -91.12125 7487 ft 157 kts 160°
2026-04-26 21:27 35.92628 -91.11584 7489 ft 157 kts 161°
2026-04-26 21:28 35.91628 -91.11046 7493 ft 157 kts 160°
2026-04-26 21:28 35.90627 -91.10503 7490 ft 157 kts 160°
2026-04-26 21:28 35.89659 -91.09956 7493 ft 157 kts 160°
2026-04-26 21:28 35.88635 -91.09393 7491 ft 157 kts 160°
2026-04-26 21:29 35.87635 -91.08850 7493 ft 157 kts 161°
2026-04-26 21:29 35.86637 -91.08291 7499 ft 158 kts 159°
2026-04-26 21:29 35.85633 -91.07730 7497 ft 158 kts 159°
2026-04-26 21:29 35.84630 -91.07170 7497 ft 157 kts 160°
2026-04-26 21:30 35.83640 -91.06642 7496 ft 157 kts 160°
2026-04-26 21:30 35.82638 -91.06093 7501 ft 157 kts 160°
2026-04-26 21:30 35.81644 -91.05539 7504 ft 157 kts 160°
2026-04-26 21:30 35.80971 -91.05164 7501 ft 157 kts 160°
2026-04-26 21:31 35.79648 -91.04430 7502 ft 157 kts 160°
2026-04-26 21:31 35.78649 -91.03870 7502 ft 158 kts 160°
2026-04-26 21:31 35.77648 -91.03312 7500 ft 157 kts 159°
2026-04-26 21:31 35.76652 -91.02742 7498 ft 158 kts 160°
2026-04-26 21:32 35.75669 -91.02198 7497 ft 157 kts 160°
2026-04-26 21:32 35.74658 -91.01627 7501 ft 157 kts 159°
2026-04-26 21:32 35.73662 -91.01067 7501 ft 157 kts 160°
2026-04-26 21:32 35.72670 -91.00511 7498 ft 156 kts 160°
2026-04-26 21:33 35.71677 -90.99955 7500 ft 157 kts 159°
2026-04-26 21:33 35.70679 -90.99393 7501 ft 158 kts 160°
2026-04-26 21:33 35.69679 -90.98826 7499 ft 158 kts 159°
2026-04-26 21:33 35.69023 -90.98439 7501 ft 158 kts 159°
2026-04-26 21:34 35.67691 -90.97670 7498 ft 158 kts 160°
2026-04-26 21:34 35.67030 -90.97300 7500 ft 158 kts 159°
2026-04-26 21:34 35.66037 -90.96731 7502 ft 158 kts 160°
2026-04-26 21:34 35.65033 -90.96167 7499 ft 158 kts 161°
2026-04-26 21:35 35.63669 -90.95527 7501 ft 158 kts 165°
2026-04-26 21:35 35.62634 -90.95083 7501 ft 157 kts 165°
2026-04-26 21:35 35.61934 -90.94788 7502 ft 157 kts 165°
2026-04-26 21:35 35.60916 -90.94354 7499 ft 157 kts 165°
2026-04-26 21:36 35.59883 -90.93911 7503 ft 158 kts 165°
2026-04-26 21:36 35.58846 -90.93462 7499 ft 157 kts 165°
2026-04-26 21:36 35.57819 -90.93015 7499 ft 157 kts 165°
2026-04-26 21:36 35.56785 -90.92574 7499 ft 157 kts 165°
2026-04-26 21:37 35.55758 -90.92124 7499 ft 157 kts 165°
2026-04-26 21:37 35.54729 -90.91680 7499 ft 156 kts 165°
2026-04-26 21:37 35.53703 -90.91231 7500 ft 157 kts 165°
2026-04-26 21:37 35.52677 -90.90783 7500 ft 156 kts 165°
2026-04-26 21:38 35.51654 -90.90330 7498 ft 156 kts 165°
2026-04-26 21:38 35.50616 -90.89923 7499 ft 157 kts 173°
2026-04-26 21:38 35.49546 -90.89719 7496 ft 155 kts 175°
2026-04-26 21:38 35.48478 -90.89519 7497 ft 155 kts 174°
2026-04-26 21:39 35.47424 -90.89209 7496 ft 156 kts 169°
2026-04-26 21:39 35.46375 -90.88868 7496 ft 156 kts 169°
2026-04-26 21:39 35.45326 -90.88525 7492 ft 156 kts 169°
2026-04-26 21:39 35.44286 -90.88189 7494 ft 156 kts 169°
2026-04-26 21:40 35.43235 -90.87848 7490 ft 156 kts 169°
2026-04-26 21:40 35.42187 -90.87501 7485 ft 156 kts 169°
2026-04-26 21:40 35.41156 -90.87162 7484 ft 155 kts 169°
2026-04-26 21:40 35.40097 -90.86814 7486 ft 156 kts 169°
2026-04-26 21:41 35.39031 -90.86463 7483 ft 156 kts 169°
2026-04-26 21:41 35.37986 -90.86116 7483 ft 156 kts 169°
2026-04-26 21:41 35.36937 -90.85763 7481 ft 156 kts 169°
2026-04-26 21:41 35.35894 -90.85415 7480 ft 155 kts 169°
2026-04-26 21:42 35.34852 -90.85064 7478 ft 155 kts 169°
2026-04-26 21:42 35.33828 -90.84718 7479 ft 155 kts 169°
2026-04-26 21:42 35.32790 -90.84367 7478 ft 155 kts 169°
2026-04-26 21:42 35.31755 -90.84012 7477 ft 155 kts 169°
2026-04-26 21:43 35.30716 -90.83656 7476 ft 155 kts 169°
2026-04-26 21:43 35.29679 -90.83300 7475 ft 155 kts 169°
2026-04-26 21:43 35.28654 -90.82944 7470 ft 155 kts 169°
2026-04-26 21:43 35.27588 -90.82576 7466 ft 155 kts 169°
2026-04-26 21:44 35.26546 -90.82222 7464 ft 155 kts 168°
2026-04-26 21:44 35.25505 -90.81865 7465 ft 155 kts 168°
2026-04-26 21:44 35.24465 -90.81507 7467 ft 156 kts 168°
2026-04-26 21:44 35.23433 -90.81152 7461 ft 156 kts 168°
2026-04-26 21:45 35.22386 -90.80792 7459 ft 155 kts 168°
2026-04-26 21:45 35.21347 -90.80431 7461 ft 156 kts 168°
2026-04-26 21:45 35.20304 -90.80069 7463 ft 156 kts 168°
2026-04-26 21:45 35.19258 -90.79705 7460 ft 156 kts 168°
2026-04-26 21:46 35.18214 -90.79336 7461 ft 156 kts 168°
2026-04-26 21:46 35.17168 -90.78971 7458 ft 156 kts 168°
2026-04-26 21:46 35.16123 -90.78607 7458 ft 156 kts 168°
2026-04-26 21:46 35.15082 -90.78242 7459 ft 155 kts 168°
2026-04-26 21:47 35.14043 -90.77873 7458 ft 155 kts 168°
2026-04-26 21:47 35.13004 -90.77507 7460 ft 155 kts 168°
2026-04-26 21:47 35.11966 -90.77136 7460 ft 155 kts 168°
2026-04-26 21:47 35.10930 -90.76762 7461 ft 155 kts 168°
2026-04-26 21:48 35.09890 -90.76389 7458 ft 156 kts 168°
2026-04-26 21:48 35.08847 -90.76010 7459 ft 156 kts 168°
2026-04-26 21:48 35.07805 -90.75630 7463 ft 156 kts 168°
2026-04-26 21:48 35.06761 -90.75259 7459 ft 156 kts 168°
2026-04-26 21:49 35.05720 -90.74882 7461 ft 156 kts 168°
2026-04-26 21:49 35.04680 -90.74500 7457 ft 156 kts 168°
2026-04-26 21:49 35.03656 -90.74126 7463 ft 156 kts 168°
2026-04-26 21:49 35.02615 -90.73744 7461 ft 156 kts 168°
2026-04-26 21:50 35.01575 -90.73366 7459 ft 156 kts 168°
2026-04-26 21:50 35.00873 -90.73106 7462 ft 156 kts 167°
2026-04-26 21:50 34.99491 -90.72594 7461 ft 157 kts 168°
2026-04-26 21:50 34.98466 -90.72221 7461 ft 157 kts 168°
2026-04-26 21:51 34.97393 -90.71822 7463 ft 156 kts 168°
2026-04-26 21:51 34.96351 -90.71438 7461 ft 157 kts 167°
2026-04-26 21:51 34.95311 -90.71047 7464 ft 156 kts 167°
2026-04-26 21:51 34.94289 -90.70663 7464 ft 156 kts 167°
2026-04-26 21:52 34.93216 -90.70270 7465 ft 156 kts 167°
2026-04-26 21:52 34.92179 -90.69887 7462 ft 155 kts 167°
2026-04-26 21:52 34.91144 -90.69502 7465 ft 156 kts 167°
2026-04-26 21:52 34.90108 -90.69111 7465 ft 156 kts 167°
2026-04-26 21:53 34.89070 -90.68723 7466 ft 156 kts 167°
2026-04-26 21:53 34.88032 -90.68335 7464 ft 155 kts 167°
2026-04-26 21:53 34.86999 -90.67946 7464 ft 156 kts 167°
2026-04-26 21:53 34.85963 -90.67552 7465 ft 156 kts 167°
2026-04-26 21:54 34.84928 -90.67161 7466 ft 156 kts 167°
2026-04-26 21:54 34.83907 -90.66773 7472 ft 156 kts 167°
2026-04-26 21:54 34.82869 -90.66375 7472 ft 157 kts 167°
2026-04-26 21:54 34.81828 -90.65976 7473 ft 157 kts 167°
2026-04-26 21:55 34.80788 -90.65581 7473 ft 156 kts 167°
2026-04-26 21:55 34.79747 -90.65184 7469 ft 157 kts 167°
2026-04-26 21:55 34.78704 -90.64783 7474 ft 157 kts 167°
2026-04-26 21:55 34.77668 -90.64384 7473 ft 156 kts 167°
2026-04-26 21:56 34.76630 -90.63983 7471 ft 157 kts 167°
2026-04-26 21:56 34.75588 -90.63582 7474 ft 157 kts 166°
2026-04-26 21:56 34.74547 -90.63182 7472 ft 157 kts 167°
2026-04-26 21:56 34.73509 -90.62783 7472 ft 157 kts 167°
2026-04-26 21:57 34.72467 -90.62385 7473 ft 157 kts 167°
2026-04-26 21:57 34.71437 -90.61985 7473 ft 157 kts 166°
2026-04-26 21:57 34.70394 -90.61582 7474 ft 158 kts 166°
2026-04-26 21:57 34.69351 -90.61176 7472 ft 157 kts 166°
2026-04-26 21:58 34.68309 -90.60768 7474 ft 157 kts 166°
2026-04-26 21:58 34.67270 -90.60363 7477 ft 157 kts 166°
2026-04-26 21:58 34.66227 -90.59955 7477 ft 158 kts 166°
2026-04-26 21:58 34.65180 -90.59544 7474 ft 157 kts 166°
2026-04-26 21:59 34.64137 -90.59138 7471 ft 157 kts 166°
2026-04-26 21:59 34.63118 -90.58699 7479 ft 158 kts 164°
2026-04-26 21:59 34.62083 -90.58244 7475 ft 158 kts 164°
2026-04-26 21:59 34.61049 -90.57791 7474 ft 158 kts 164°
2026-04-26 22:00 34.60011 -90.57335 7474 ft 159 kts 164°
2026-04-26 22:00 34.58977 -90.56879 7470 ft 158 kts 164°
2026-04-26 22:00 34.57946 -90.56423 7473 ft 158 kts 164°
2026-04-26 22:00 34.56915 -90.55966 7472 ft 157 kts 164°
2026-04-26 22:01 34.55891 -90.55506 7473 ft 157 kts 164°
2026-04-26 22:01 34.54866 -90.55045 7475 ft 157 kts 163°
2026-04-26 22:01 34.53839 -90.54587 7476 ft 157 kts 164°
2026-04-26 22:01 34.52813 -90.54128 7476 ft 157 kts 163°
2026-04-26 22:02 34.51787 -90.53669 7478 ft 157 kts 164°
2026-04-26 22:02 34.51105 -90.53363 7480 ft 158 kts 163°
2026-04-26 22:02 34.49741 -90.52755 7521 ft 158 kts 163°
2026-04-26 22:02 34.48715 -90.52284 7479 ft 158 kts 163°
2026-04-26 22:03 34.47687 -90.51826 7482 ft 157 kts 163°
2026-04-26 22:03 34.46661 -90.51359 7483 ft 158 kts 163°
2026-04-26 22:03 34.45631 -90.50894 7488 ft 158 kts 163°
2026-04-26 22:03 34.44597 -90.50423 7485 ft 159 kts 163°
2026-04-26 22:04 34.43565 -90.49955 7485 ft 158 kts 163°
2026-04-26 22:04 34.42544 -90.49499 7486 ft 158 kts 163°
2026-04-26 22:04 34.41517 -90.49036 7487 ft 157 kts 163°
2026-04-26 22:04 34.40490 -90.48570 7484 ft 158 kts 163°
2026-04-26 22:05 34.39460 -90.48104 7487 ft 158 kts 163°
2026-04-26 22:05 34.38432 -90.47637 7489 ft 158 kts 163°
2026-04-26 22:05 34.37403 -90.47171 7491 ft 158 kts 163°
2026-04-26 22:05 34.36373 -90.46699 7488 ft 157 kts 163°
2026-04-26 22:06 34.35347 -90.46233 7489 ft 158 kts 163°
2026-04-26 22:06 34.34323 -90.45767 7490 ft 157 kts 163°
2026-04-26 22:06 34.33296 -90.45302 7492 ft 158 kts 163°
2026-04-26 22:06 34.32281 -90.44840 7489 ft 158 kts 163°
2026-04-26 22:07 34.31256 -90.44370 7489 ft 158 kts 163°
2026-04-26 22:07 34.30228 -90.43897 7486 ft 158 kts 163°
2026-04-26 22:07 34.29195 -90.43424 7488 ft 158 kts 162°
2026-04-26 22:07 34.28514 -90.43111 7487 ft 158 kts 163°
2026-04-26 22:08 34.27137 -90.42475 7485 ft 158 kts 162°
2026-04-26 22:08 34.26123 -90.42010 7489 ft 158 kts 163°
2026-04-26 22:08 34.25096 -90.41545 7491 ft 158 kts 162°
2026-04-26 22:08 34.24062 -90.41065 7486 ft 158 kts 162°
2026-04-26 22:09 34.23036 -90.40595 7483 ft 158 kts 162°
2026-04-26 22:09 34.22004 -90.40114 7486 ft 159 kts 162°
2026-04-26 22:09 34.20973 -90.39637 7486 ft 159 kts 162°
2026-04-26 22:09 34.19942 -90.39159 7486 ft 159 kts 162°
2026-04-26 22:10 34.18909 -90.38681 7483 ft 159 kts 162°
2026-04-26 22:10 34.17875 -90.38204 7480 ft 159 kts 162°
2026-04-26 22:10 34.16844 -90.37727 7482 ft 159 kts 162°
2026-04-26 22:10 34.15825 -90.37253 7484 ft 159 kts 162°
2026-04-26 22:11 34.14796 -90.36776 7481 ft 158 kts 162°
2026-04-26 22:11 34.13768 -90.36297 7479 ft 158 kts 162°
2026-04-26 22:11 34.12740 -90.35815 7479 ft 158 kts 162°
2026-04-26 22:11 34.11709 -90.35337 7477 ft 158 kts 162°
2026-04-26 22:12 34.10678 -90.34859 7478 ft 158 kts 162°
2026-04-26 22:12 34.09648 -90.34377 7477 ft 159 kts 162°
2026-04-26 22:12 34.08620 -90.33894 7477 ft 159 kts 162°
2026-04-26 22:12 34.07589 -90.33407 7475 ft 160 kts 162°
2026-04-26 22:13 34.06566 -90.32925 7474 ft 160 kts 162°
2026-04-26 22:13 34.05860 -90.32594 7472 ft 160 kts 162°
2026-04-26 22:13 34.04826 -90.32100 7471 ft 159 kts 162°
2026-04-26 22:13 34.03789 -90.31610 7469 ft 160 kts 162°
2026-04-26 22:14 34.02751 -90.31117 7472 ft 160 kts 162°
2026-04-26 22:14 34.01710 -90.30624 7472 ft 161 kts 162°
2026-04-26 22:14 34.00673 -90.30127 7471 ft 161 kts 162°
2026-04-26 22:14 33.99634 -90.29629 7466 ft 161 kts 161°
2026-04-26 22:15 33.98593 -90.29122 7464 ft 161 kts 161°
2026-04-26 22:15 33.97554 -90.28621 7466 ft 160 kts 161°
2026-04-26 22:15 33.96520 -90.28122 7467 ft 160 kts 161°
2026-04-26 22:15 33.95498 -90.27632 7467 ft 160 kts 161°
2026-04-26 22:16 33.94462 -90.27136 7465 ft 160 kts 161°
2026-04-26 22:16 33.93428 -90.26631 7466 ft 160 kts 161°
2026-04-26 22:16 33.92389 -90.26135 7469 ft 161 kts 161°
2026-04-26 22:16 33.91349 -90.25637 7469 ft 161 kts 162°
2026-04-26 22:17 33.90312 -90.25135 7469 ft 161 kts 161°
2026-04-26 22:17 33.89271 -90.24633 7467 ft 161 kts 161°
2026-04-26 22:17 33.88232 -90.24127 7472 ft 161 kts 161°
2026-04-26 22:17 33.87195 -90.23625 7465 ft 161 kts 161°
2026-04-26 22:18 33.86155 -90.23116 7376 ft 160 kts 161°
2026-04-26 22:18 33.85124 -90.22605 7237 ft 162 kts 161°
2026-04-26 22:18 33.84071 -90.22095 7095 ft 162 kts 161°
2026-04-26 22:18 33.83034 -90.21586 7011 ft 160 kts 161°
2026-04-26 22:19 33.82000 -90.21084 6851 ft 161 kts 161°
2026-04-26 22:19 33.80961 -90.20584 6747 ft 159 kts 161°
2026-04-26 22:19 33.79936 -90.20081 6608 ft 159 kts 160°
2026-04-26 22:19 33.78920 -90.19601 6452 ft 159 kts 161°
2026-04-26 22:20 33.77900 -90.19098 6338 ft 158 kts 160°
2026-04-26 22:20 33.76880 -90.18600 6203 ft 158 kts 161°
2026-04-26 22:20 33.75862 -90.18105 6073 ft 158 kts 161°
2026-04-26 22:20 33.74844 -90.17617 5954 ft 157 kts 162°
2026-04-26 22:21 33.73830 -90.17125 5826 ft 157 kts 160°
2026-04-26 22:21 33.72821 -90.16624 5692 ft 157 kts 161°
2026-04-26 22:21 33.71808 -90.16135 5573 ft 157 kts 160°
2026-04-26 22:21 33.70804 -90.15630 5475 ft 157 kts 161°
2026-04-26 22:22 33.69811 -90.15131 5363 ft 156 kts 160°
2026-04-26 22:22 33.68804 -90.14650 5254 ft 156 kts 161°
2026-04-26 22:22 33.67799 -90.14169 5129 ft 155 kts 156°
2026-04-26 22:22 33.66800 -90.13670 5010 ft 155 kts 161°
2026-04-26 22:23 33.65791 -90.13228 4931 ft 154 kts 161°
2026-04-26 22:23 33.64806 -90.12716 4827 ft 155 kts 160°
2026-04-26 22:23 33.63818 -90.12207 4740 ft 154 kts 159°
2026-04-26 22:23 33.62805 -90.11785 4631 ft 154 kts 166°
2026-04-26 22:24 33.61800 -90.11337 4551 ft 153 kts 164°
2026-04-26 22:24 33.60816 -90.10890 4462 ft 153 kts 162°
2026-04-26 22:24 33.59838 -90.10394 4373 ft 152 kts 157°
2026-04-26 22:24 33.58869 -90.09878 4276 ft 153 kts 161°
2026-04-26 22:25 33.57891 -90.09386 4196 ft 152 kts 160°
2026-04-26 22:25 33.56908 -90.08923 4125 ft 151 kts 160°
2026-04-26 22:25 33.55930 -90.08451 4044 ft 152 kts 161°
2026-04-26 22:25 33.54956 -90.07951 3972 ft 152 kts 156°
2026-04-26 22:26 33.53978 -90.07494 3907 ft 151 kts 164°
2026-04-26 22:26 33.53009 -90.06997 3824 ft 152 kts 158°
2026-04-26 22:26 33.52033 -90.06533 3775 ft 151 kts 161°
2026-04-26 22:26 33.51061 -90.06063 3727 ft 150 kts 159°
2026-04-26 22:27 33.50075 -90.05648 3652 ft 150 kts 162°
2026-04-26 22:27 33.49099 -90.05195 3581 ft 150 kts 160°
2026-04-26 22:27 33.48124 -90.04731 3430 ft 154 kts 159°
2026-04-26 22:27 33.47289 -90.03965 2935 ft 151 kts 110°
2026-04-26 22:28 33.47431 -90.02814 2608 ft 137 kts 59°
2026-04-26 22:28 33.48004 -90.01892 2180 ft 135 kts 30°
2026-04-26 22:28 33.48884 -90.01680 1779 ft 135 kts 336°
2026-04-26 22:28 33.49568 -90.02306 1570 ft 121 kts 305°
2026-04-26 22:29 33.49793 -90.03248 1243 ft 121 kts 277°
2026-04-26 22:29 33.49797 -90.03284 1226 ft 121 kts 276°
2026-04-26 22:29 33.49899 -90.03650 1069 ft 98 kts 298°
2026-04-26 22:29 33.50271 -90.04327 955 ft 96 kts 302°
2026-04-26 22:30 33.50637 -90.04978 886 ft 93 kts 302°
2026-04-26 22:30 33.50957 -90.05558 985 ft 87 kts 306°
2026-04-26 22:30 33.51084 -90.05791 918 ft 89 kts 295°
2026-04-26 22:30 33.51137 -90.06404 787 ft 89 kts 238°
2026-04-26 22:31 33.50833 -90.06763 695 ft 87 kts 224°
2026-04-26 22:31 33.50428 -90.07390 417 ft 99 kts 221°
2026-04-26 22:31 33.50023 -90.08003 169 ft 84 kts 232°
2026-04-26 22:31 33.49750 -90.08429 175 ft 55 kts 223°
2026-04-26 22:32 33.49465 -90.08850 364 ft 66 kts 207°
2026-04-26 22:32 33.49037 -90.08672 639 ft 72 kts 129°
2026-04-26 22:32 33.49002 -90.08030 733 ft 97 kts 51°
2026-04-26 22:32 33.49436 -90.07402 944 ft 101 kts 52°
2026-04-26 22:33 33.49830 -90.06677 1063 ft 103 kts 60°
2026-04-26 22:33 33.50319 -90.05276 1153 ft 90 kts 37°
2026-04-26 22:33 33.50914 -90.05305 1146 ft 92 kts 326°
2026-04-26 22:34 33.51336 -90.05867 1129 ft 96 kts 278°
2026-04-26 22:34 33.50968 -90.06514 846 ft 107 kts 214°
2026-04-26 22:34 33.50551 -90.07206 480 ft 98 kts 244°
2026-04-26 22:34 33.50168 -90.07787 207 ft 81 kts 234°
2026-04-26 22:35 33.49888 -90.08220 156 ft 50 kts 230°
2026-04-26 22:35 33.49732 -90.08464 149 ft 29 kts 232°
2026-04-26 22:35 33.49601 -90.08527 149 ft 21 kts 141°
2026-04-26 22:35 33.49492 -90.08533 148 ft 18 kts 218°
2026-04-26 22:36 33.49375 -90.08581 147 ft 18 kts 183°
2026-04-26 22:36 33.49243 -90.08592 146 ft 20 kts 186°
2026-04-26 22:36 33.49104 -90.08623 146 ft 20 kts 182°
2026-04-26 22:36 33.49038 -90.08628 145 ft 0 kts 185°
2026-04-26 22:38 33.49020 -90.08621 145 ft 7 kts 161°
2026-04-26 22:38 33.48959 -90.08582 145 ft 10 kts 152°
2026-04-26 22:38 33.48933 -90.08538 145 ft 7 kts 141°
2026-04-26 22:38 33.48920 -90.08526 145 ft 3 kts 83°
2026-04-26 22:39 33.48921 -90.08524 145 ft 0 kts 63°
2026-04-26 22:44 33.48882 -90.08578 145 ft 10 kts 311°
2026-04-26 22:44 33.49105 -90.08626 166 ft 65 kts 340°
2026-04-26 22:44 33.49144 -90.08924 239 ft 77 kts 192°
2026-04-26 22:45 33.48604 -90.08924 424 ft 80 kts 171°
2026-04-26 22:45 33.48152 -90.08753 762 ft 65 kts 158°
2026-04-26 22:45 33.47728 -90.08480 1054 ft 69 kts 147°
2026-04-26 22:45 33.47471 -90.08253 1330 ft 67 kts 142°
2026-04-26 22:46 33.46928 -90.07863 1752 ft 77 kts 159°
2026-04-26 22:46 33.46458 -90.07676 2180 ft 67 kts 160°
2026-04-26 22:46 33.46005 -90.07487 2502 ft 68 kts 160°
2026-04-26 22:46 33.45393 -90.07277 2514 ft 114 kts 168°
2026-04-26 22:47 33.44548 -90.07035 2533 ft 134 kts 166°
2026-04-26 22:47 33.43648 -90.06715 2545 ft 136 kts 164°
2026-04-26 22:47 33.42733 -90.06359 2562 ft 141 kts 162°
2026-04-26 22:47 33.41789 -90.05980 2595 ft 146 kts 164°
2026-04-26 22:48 33.40811 -90.05632 2625 ft 146 kts 164°
2026-04-26 22:48 33.39841 -90.05256 2663 ft 147 kts 162°
2026-04-26 22:48 33.38873 -90.04842 2701 ft 149 kts 162°
2026-04-26 22:48 33.37887 -90.04458 2749 ft 149 kts 165°
2026-04-26 22:49 33.36902 -90.04068 2786 ft 149 kts 160°
2026-04-26 22:49 33.35939 -90.03612 2827 ft 149 kts 162°
2026-04-26 22:49 33.34975 -90.03168 2865 ft 148 kts 160°
2026-04-26 22:49 33.33990 -90.02780 2898 ft 149 kts 166°
2026-04-26 22:50 33.33016 -90.02373 2939 ft 149 kts 161°
2026-04-26 22:50 33.32047 -90.01936 2984 ft 149 kts 162°
2026-04-26 22:50 33.31065 -90.01527 3038 ft 151 kts 161°
2026-04-26 22:50 33.30072 -90.01130 3078 ft 150 kts 162°
2026-04-26 22:51 33.29100 -90.00712 3117 ft 150 kts 161°
2026-04-26 22:51 33.28110 -90.00278 3154 ft 151 kts 160°
2026-04-26 22:51 33.27135 -89.99838 3195 ft 149 kts 163°
2026-04-26 22:51 33.26165 -89.99403 3229 ft 149 kts 160°
2026-04-26 22:52 33.25198 -89.98947 3262 ft 150 kts 162°
2026-04-26 22:52 33.24209 -89.98558 3303 ft 150 kts 165°
2026-04-26 22:52 33.23220 -89.98148 3341 ft 151 kts 163°
2026-04-26 22:52 33.22246 -89.97675 3379 ft 152 kts 159°
2026-04-26 22:53 33.21281 -89.97166 3409 ft 151 kts 159°
2026-04-26 22:53 33.20290 -89.96759 3445 ft 150 kts 162°
2026-04-26 22:53 33.19322 -89.96307 3480 ft 149 kts 163°
2026-04-26 22:53 33.18350 -89.95873 3512 ft 150 kts 165°
2026-04-26 22:54 33.17702 -89.95588 3532 ft 151 kts 162°
2026-04-26 22:54 33.16715 -89.95168 3574 ft 151 kts 162°
2026-04-26 22:54 33.15724 -89.94755 3607 ft 150 kts 165°
2026-04-26 22:54 33.14737 -89.94329 3645 ft 151 kts 158°
2026-04-26 22:55 33.13763 -89.93855 3687 ft 152 kts 160°
2026-04-26 22:55 33.12781 -89.93385 3714 ft 152 kts 159°
2026-04-26 22:55 33.11788 -89.92959 3750 ft 151 kts 164°
2026-04-26 22:55 33.10800 -89.92534 3789 ft 151 kts 162°
2026-04-26 22:56 33.09817 -89.92081 3821 ft 151 kts 163°
2026-04-26 22:56 33.08838 -89.91617 3860 ft 151 kts 157°
2026-04-26 22:56 33.07866 -89.91144 3890 ft 151 kts 161°
2026-04-26 22:56 33.06894 -89.90674 3921 ft 150 kts 164°
2026-04-26 22:57 33.05922 -89.90224 3952 ft 151 kts 162°
2026-04-26 22:57 33.04954 -89.89754 3990 ft 150 kts 162°
2026-04-26 22:57 33.03974 -89.89300 4025 ft 150 kts 160°
2026-04-26 22:57 33.03001 -89.88829 4054 ft 151 kts 161°
2026-04-26 22:58 33.02028 -89.88367 4086 ft 154 kts 161°
2026-04-26 22:58 33.01039 -89.87891 4126 ft 153 kts 163°
2026-04-26 22:58 33.00042 -89.87453 4162 ft 152 kts 161°
2026-04-26 22:58 32.99053 -89.86992 4197 ft 153 kts 163°
2026-04-26 22:59 32.98058 -89.86533 4227 ft 153 kts 159°
2026-04-26 22:59 32.97083 -89.86055 4263 ft 152 kts 161°
2026-04-26 22:59 32.96094 -89.85581 4293 ft 153 kts 160°
2026-04-26 22:59 32.95114 -89.85108 4323 ft 151 kts 162°
2026-04-26 23:00 32.94144 -89.84611 4379 ft 150 kts 160°
2026-04-26 23:00 32.93175 -89.84139 4406 ft 151 kts 161°
2026-04-26 23:00 32.92223 -89.83648 4440 ft 152 kts 159°
2026-04-26 23:00 32.91239 -89.83170 4468 ft 153 kts 161°
2026-04-26 23:01 32.90248 -89.82706 4503 ft 152 kts 160°
2026-04-26 23:01 32.89265 -89.82233 4539 ft 153 kts 164°
2026-04-26 23:01 32.88290 -89.81678 4585 ft 153 kts 159°
2026-04-26 23:01 32.87304 -89.81218 4616 ft 152 kts 158°
2026-04-26 23:02 32.86319 -89.80778 4651 ft 151 kts 163°
2026-04-26 23:02 32.85337 -89.80309 4676 ft 152 kts 162°
2026-04-26 23:02 32.84375 -89.79798 4705 ft 153 kts 161°
2026-04-26 23:02 32.83398 -89.79305 4733 ft 152 kts 158°
2026-04-26 23:03 32.82436 -89.78813 4763 ft 152 kts 161°
2026-04-26 23:03 32.81465 -89.78327 4787 ft 152 kts 160°
2026-04-26 23:03 32.80488 -89.77808 4821 ft 151 kts 157°
2026-04-26 23:03 32.79530 -89.77335 4852 ft 151 kts 162°
2026-04-26 23:04 32.78570 -89.76845 4884 ft 150 kts 157°
2026-04-26 23:04 32.77603 -89.76370 4906 ft 151 kts 158°
2026-04-26 23:04 32.76640 -89.75884 4931 ft 150 kts 160°
2026-04-26 23:04 32.75669 -89.75395 4964 ft 150 kts 163°
2026-04-26 23:05 32.74689 -89.74903 4992 ft 150 kts 160°
2026-04-26 23:05 32.73741 -89.74383 5023 ft 151 kts 158°
2026-04-26 23:05 32.72771 -89.73890 5052 ft 152 kts 163°
2026-04-26 23:05 32.71798 -89.73416 5076 ft 152 kts 161°
2026-04-26 23:06 32.70836 -89.72936 5108 ft 151 kts 160°
2026-04-26 23:06 32.69850 -89.72436 5130 ft 152 kts 160°
2026-04-26 23:06 32.68876 -89.71962 5157 ft 151 kts 161°
2026-04-26 23:06 32.67909 -89.71471 5184 ft 152 kts 160°
2026-04-26 23:07 32.66945 -89.71012 5218 ft 152 kts 163°
2026-04-26 23:07 32.65977 -89.70515 5242 ft 152 kts 156°
2026-04-26 23:07 32.65007 -89.70029 5269 ft 151 kts 159°
2026-04-26 23:07 32.64034 -89.69551 5297 ft 151 kts 159°
2026-04-26 23:08 32.63065 -89.69055 5323 ft 151 kts 158°
2026-04-26 23:08 32.62102 -89.68552 5351 ft 152 kts 159°
2026-04-26 23:08 32.61129 -89.68058 5379 ft 152 kts 158°
2026-04-26 23:08 32.60169 -89.67536 5406 ft 152 kts 159°
2026-04-26 23:09 32.59185 -89.67067 5433 ft 152 kts 159°
2026-04-26 23:09 32.58215 -89.66572 5464 ft 152 kts 162°
2026-04-26 23:09 32.57238 -89.66105 5484 ft 151 kts 160°
2026-04-26 23:09 32.56282 -89.65583 5516 ft 152 kts 160°
2026-04-26 23:10 32.55313 -89.65095 5536 ft 151 kts 160°
2026-04-26 23:10 32.54344 -89.64610 5561 ft 150 kts 160°
2026-04-26 23:10 32.53380 -89.64127 5585 ft 150 kts 159°
2026-04-26 23:10 32.52413 -89.63658 5612 ft 150 kts 159°
2026-04-26 23:11 32.51460 -89.63161 5632 ft 150 kts 162°
2026-04-26 23:11 32.50507 -89.62667 5661 ft 150 kts 161°
2026-04-26 23:11 32.49556 -89.62154 5684 ft 150 kts 155°
2026-04-26 23:11 32.48612 -89.61629 5708 ft 150 kts 160°
2026-04-26 23:12 32.47638 -89.61168 5742 ft 150 kts 160°
2026-04-26 23:12 32.46678 -89.60661 5774 ft 151 kts 161°
2026-04-26 23:12 32.45724 -89.60145 5793 ft 151 kts 159°
2026-04-26 23:12 32.44766 -89.59625 5821 ft 152 kts 159°
2026-04-26 23:13 32.43793 -89.59145 5851 ft 152 kts 160°
2026-04-26 23:13 32.42828 -89.58643 5885 ft 151 kts 157°
2026-04-26 23:13 32.41863 -89.58137 5908 ft 152 kts 159°
2026-04-26 23:13 32.40907 -89.57608 5935 ft 152 kts 160°
2026-04-26 23:14 32.39939 -89.57120 5961 ft 152 kts 159°
2026-04-26 23:14 32.38969 -89.56629 5988 ft 151 kts 160°
2026-04-26 23:14 32.38007 -89.56140 6015 ft 150 kts 160°
2026-04-26 23:14 32.37053 -89.55633 6037 ft 151 kts 158°
2026-04-26 23:15 32.36088 -89.55136 6065 ft 151 kts 162°
2026-04-26 23:15 32.35124 -89.54667 6092 ft 150 kts 156°
2026-04-26 23:15 32.34186 -89.54152 6119 ft 151 kts 162°
2026-04-26 23:15 32.33236 -89.53633 6146 ft 150 kts 159°
2026-04-26 23:16 32.32288 -89.53117 6174 ft 151 kts 160°
2026-04-26 23:16 32.31344 -89.52583 6197 ft 150 kts 159°
2026-04-26 23:16 32.30384 -89.52086 6221 ft 150 kts 161°
2026-04-26 23:16 32.29424 -89.51605 6242 ft 151 kts 160°
2026-04-26 23:17 32.28462 -89.51113 6268 ft 150 kts 159°
2026-04-26 23:17 32.27512 -89.50599 6290 ft 150 kts 158°
2026-04-26 23:17 32.26551 -89.50099 6306 ft 152 kts 160°
2026-04-26 23:17 32.25584 -89.49601 6341 ft 152 kts 162°
2026-04-26 23:18 32.24625 -89.49090 6357 ft 151 kts 157°
2026-04-26 23:18 32.23671 -89.48573 6376 ft 151 kts 158°
2026-04-26 23:18 32.22711 -89.48070 6399 ft 151 kts 159°
2026-04-26 23:18 32.21758 -89.47545 6418 ft 151 kts 157°
2026-04-26 23:19 32.20794 -89.47044 6438 ft 152 kts 159°
2026-04-26 23:19 32.19833 -89.46543 6458 ft 151 kts 159°
2026-04-26 23:19 32.18874 -89.46037 6473 ft 151 kts 159°
2026-04-26 23:19 32.17913 -89.45545 6491 ft 151 kts 159°
2026-04-26 23:20 32.16956 -89.45037 6511 ft 151 kts 159°
2026-04-26 23:20 32.16000 -89.44522 6508 ft 153 kts 158°
2026-04-26 23:20 32.14998 -89.43985 6455 ft 162 kts 159°
2026-04-26 23:20 32.13967 -89.43400 6413 ft 167 kts 158°
2026-04-26 23:21 32.12903 -89.42839 6383 ft 168 kts 158°
2026-04-26 23:21 32.11830 -89.42262 6317 ft 171 kts 157°
2026-04-26 23:21 32.10737 -89.41718 6278 ft 170 kts 160°
2026-04-26 23:21 32.09652 -89.41159 6235 ft 170 kts 157°
2026-04-26 23:22 32.08578 -89.40564 6195 ft 171 kts 157°
2026-04-26 23:22 32.07489 -89.39998 6145 ft 170 kts 158°
2026-04-26 23:22 32.06424 -89.39404 6091 ft 170 kts 156°
2026-04-26 23:22 32.05353 -89.38810 6049 ft 170 kts 160°
2026-04-26 23:23 32.04271 -89.38256 6002 ft 170 kts 160°
2026-04-26 23:23 32.03187 -89.37700 5954 ft 170 kts 158°
2026-04-26 23:23 32.02265 -89.36836 5911 ft 171 kts 139°
2026-04-26 23:23 32.01341 -89.35936 5865 ft 172 kts 143°
2026-04-26 23:24 32.00413 -89.35052 5819 ft 171 kts 143°
2026-04-26 23:24 31.99492 -89.34153 5775 ft 172 kts 143°
2026-04-26 23:24 31.98541 -89.33298 5726 ft 171 kts 146°
2026-04-26 23:24 31.97593 -89.32452 5680 ft 172 kts 145°
2026-04-26 23:25 31.96634 -89.31599 5634 ft 172 kts 145°
2026-04-26 23:25 31.95675 -89.30756 5587 ft 172 kts 145°
2026-04-26 23:25 31.94732 -89.29886 5538 ft 172 kts 144°
2026-04-26 23:25 31.93791 -89.29012 5495 ft 173 kts 144°
2026-04-26 23:26 31.92836 -89.28162 5448 ft 172 kts 146°
2026-04-26 23:26 31.91882 -89.27317 5399 ft 172 kts 144°
2026-04-26 23:26 31.90924 -89.26475 5352 ft 171 kts 145°
2026-04-26 23:26 31.89982 -89.25618 5305 ft 171 kts 144°
2026-04-26 23:27 31.89040 -89.24749 5261 ft 172 kts 143°
2026-04-26 23:27 31.88098 -89.23881 5214 ft 172 kts 143°
2026-04-26 23:27 31.87157 -89.23009 5165 ft 172 kts 144°
2026-04-26 23:27 31.86536 -89.22439 5136 ft 171 kts 144°
2026-04-26 23:28 31.85288 -89.21305 5074 ft 171 kts 145°
2026-04-26 23:28 31.84347 -89.20454 5028 ft 171 kts 144°
2026-04-26 23:28 31.83403 -89.19608 4981 ft 170 kts 143°
2026-04-26 23:28 31.82474 -89.18745 4936 ft 170 kts 143°
2026-04-26 23:29 31.81545 -89.17878 4894 ft 171 kts 144°
2026-04-26 23:29 31.80605 -89.17019 4851 ft 171 kts 144°
2026-04-26 23:29 31.79671 -89.16147 4802 ft 172 kts 143°
2026-04-26 23:29 31.78738 -89.15273 4755 ft 171 kts 144°
2026-04-26 23:30 31.77808 -89.14401 4710 ft 171 kts 143°
2026-04-26 23:30 31.76878 -89.13532 4663 ft 171 kts 143°
2026-04-26 23:30 31.75945 -89.12662 4614 ft 171 kts 143°
2026-04-26 23:30 31.75016 -89.11792 4564 ft 171 kts 143°
2026-04-26 23:31 31.74087 -89.10923 4518 ft 170 kts 143°
2026-04-26 23:31 31.73170 -89.10064 4470 ft 171 kts 143°
2026-04-26 23:31 31.72240 -89.09191 4423 ft 171 kts 143°
2026-04-26 23:31 31.71312 -89.08317 4377 ft 171 kts 143°
2026-04-26 23:32 31.70383 -89.07447 4331 ft 171 kts 143°
2026-04-26 23:32 31.69454 -89.06575 4282 ft 171 kts 143°
2026-04-26 23:32 31.68528 -89.05703 4239 ft 170 kts 143°
2026-04-26 23:32 31.67602 -89.04829 4194 ft 171 kts 143°
2026-04-26 23:33 31.66694 -89.03971 4150 ft 169 kts 143°
2026-04-26 23:33 31.65758 -89.03096 4104 ft 170 kts 143°
2026-04-26 23:33 31.64834 -89.02226 4056 ft 170 kts 143°
2026-04-26 23:33 31.63910 -89.01358 4014 ft 170 kts 143°
2026-04-26 23:34 31.62989 -89.00480 3967 ft 170 kts 143°
2026-04-26 23:34 31.62073 -88.99611 3924 ft 170 kts 142°
2026-04-26 23:34 31.61152 -88.98734 3876 ft 170 kts 141°
2026-04-26 23:34 31.60248 -88.97839 3833 ft 170 kts 144°
2026-04-26 23:35 31.59327 -88.96983 3787 ft 169 kts 143°
2026-04-26 23:35 31.58410 -88.96113 3743 ft 170 kts 142°
2026-04-26 23:35 31.57807 -88.95526 3713 ft 170 kts 143°
2026-04-26 23:35 31.56592 -88.94344 3651 ft 170 kts 142°
2026-04-26 23:36 31.55985 -88.93761 3623 ft 170 kts 141°
2026-04-26 23:36 31.55083 -88.92858 3577 ft 170 kts 142°
2026-04-26 23:36 31.54146 -88.92015 3534 ft 170 kts 146°
2026-04-26 23:36 31.53236 -88.91136 3489 ft 170 kts 143°
2026-04-26 23:37 31.52289 -88.90320 3445 ft 169 kts 145°
2026-04-26 23:37 31.51394 -88.89430 3400 ft 169 kts 142°
2026-04-26 23:37 31.50498 -88.88542 3357 ft 169 kts 140°
2026-04-26 23:37 31.49619 -88.87620 3311 ft 170 kts 142°
2026-04-26 23:38 31.48738 -88.86706 3263 ft 169 kts 141°
2026-04-26 23:38 31.47827 -88.85847 3224 ft 168 kts 147°
2026-04-26 23:38 31.46936 -88.84964 3178 ft 169 kts 141°
2026-04-26 23:38 31.46017 -88.84121 3134 ft 168 kts 142°
2026-04-26 23:39 31.45132 -88.83232 3087 ft 167 kts 148°
2026-04-26 23:39 31.44209 -88.82408 3041 ft 167 kts 141°
2026-04-26 23:39 31.43325 -88.81532 3007 ft 166 kts 142°
2026-04-26 23:39 31.42443 -88.80651 2948 ft 167 kts 143°
2026-04-26 23:40 31.41576 -88.79746 2912 ft 168 kts 143°
2026-04-26 23:40 31.40682 -88.78873 2871 ft 168 kts 142°
2026-04-26 23:40 31.39784 -88.78015 2828 ft 165 kts 136°
2026-04-26 23:40 31.38910 -88.77134 2786 ft 165 kts 145°
2026-04-26 23:41 31.38004 -88.76300 2743 ft 165 kts 143°
2026-04-26 23:41 31.37128 -88.75430 2701 ft 165 kts 141°
2026-04-26 23:41 31.36254 -88.74549 2657 ft 166 kts 139°
2026-04-26 23:41 31.35412 -88.73640 2619 ft 165 kts 142°
2026-04-26 23:42 31.34521 -88.72799 2578 ft 165 kts 147°
2026-04-26 23:42 31.32673 -88.71226 2552 ft 164 kts 150°
2026-04-26 23:42 31.31734 -88.70502 2550 ft 161 kts 146°
2026-04-26 23:43 31.30761 -88.69825 2551 ft 160 kts 154°
2026-04-26 23:43 31.29795 -88.69178 2552 ft 160 kts 148°
2026-04-26 23:43 31.28869 -88.68452 2550 ft 161 kts 148°
2026-04-26 23:43 31.27931 -88.67767 2556 ft 160 kts 154°
2026-04-26 23:44 31.26954 -88.67162 2552 ft 159 kts 152°
2026-04-26 23:44 31.26008 -88.66478 2556 ft 160 kts 146°
2026-04-26 23:44 31.25094 -88.65732 2558 ft 160 kts 151°
2026-04-26 23:44 31.24125 -88.65090 2554 ft 160 kts 151°
2026-04-26 23:45 31.23173 -88.64422 2556 ft 160 kts 155°
2026-04-26 23:45 31.22240 -88.63716 2555 ft 161 kts 148°
2026-04-26 23:45 31.21303 -88.63010 2552 ft 160 kts 154°
2026-04-26 23:45 31.20335 -88.62379 2555 ft 159 kts 150°
2026-04-26 23:46 31.19412 -88.61658 2555 ft 160 kts 144°
2026-04-26 23:46 31.18482 -88.60982 2554 ft 159 kts 148°
2026-04-26 23:46 31.17550 -88.60269 2553 ft 160 kts 153°
2026-04-26 23:46 31.16593 -88.59604 2553 ft 161 kts 147°
2026-04-26 23:47 31.15659 -88.58895 2552 ft 160 kts 150°
2026-04-26 23:47 31.14722 -88.58188 2552 ft 160 kts 149°
2026-04-26 23:47 31.13771 -88.57507 2549 ft 160 kts 153°
2026-04-26 23:47 31.12832 -88.56813 2551 ft 160 kts 149°
2026-04-26 23:48 31.11883 -88.56125 2553 ft 160 kts 151°
2026-04-26 23:48 31.10923 -88.55457 2556 ft 160 kts 152°
2026-04-26 23:48 31.09960 -88.54798 2550 ft 160 kts 152°
2026-04-26 23:48 31.09019 -88.54115 2552 ft 160 kts 148°
2026-04-26 23:49 31.08084 -88.53413 2552 ft 160 kts 148°
2026-04-26 23:49 31.07150 -88.52701 2555 ft 160 kts 150°
2026-04-26 23:49 31.06208 -88.52011 2555 ft 160 kts 147°
2026-04-26 23:49 31.05281 -88.51280 2550 ft 161 kts 150°
2026-04-26 23:50 31.04323 -88.50606 2552 ft 161 kts 151°
2026-04-26 23:50 31.03364 -88.49928 2551 ft 161 kts 151°
2026-04-26 23:50 31.02414 -88.49239 2549 ft 161 kts 149°
2026-04-26 23:50 31.01464 -88.48555 2557 ft 160 kts 150°
2026-04-26 23:51 31.00526 -88.47861 2558 ft 159 kts 149°
2026-04-26 23:51 30.99585 -88.47155 2542 ft 161 kts 149°
2026-04-26 23:51 30.98647 -88.46462 2555 ft 160 kts 149°
2026-04-26 23:51 30.97708 -88.45765 2551 ft 161 kts 149°
2026-04-26 23:52 30.96765 -88.45061 2556 ft 161 kts 150°
2026-04-26 23:52 30.95821 -88.44363 2552 ft 162 kts 149°
2026-04-26 23:52 30.94875 -88.43661 2548 ft 160 kts 149°
2026-04-26 23:52 30.93941 -88.42970 2550 ft 159 kts 149°
2026-04-26 23:53 30.93008 -88.42276 2551 ft 159 kts 149°
2026-04-26 23:53 30.92072 -88.41589 2553 ft 159 kts 149°
2026-04-26 23:53 30.91134 -88.40899 2555 ft 159 kts 149°
2026-04-26 23:53 30.90200 -88.40206 2553 ft 160 kts 149°
2026-04-26 23:54 30.89264 -88.39507 2553 ft 160 kts 149°
2026-04-26 23:54 30.88326 -88.38805 2552 ft 160 kts 149°
2026-04-26 23:54 30.87385 -88.38106 2552 ft 160 kts 149°
2026-04-26 23:54 30.86439 -88.37407 2553 ft 161 kts 149°
2026-04-26 23:55 30.85495 -88.36709 2553 ft 161 kts 149°
2026-04-26 23:55 30.84537 -88.35998 2552 ft 161 kts 149°
2026-04-26 23:55 30.83595 -88.35299 2553 ft 160 kts 149°
2026-04-26 23:55 30.82657 -88.34600 2552 ft 161 kts 149°
2026-04-26 23:56 30.81693 -88.33948 2549 ft 160 kts 155°
2026-04-26 23:56 30.80708 -88.33379 2544 ft 160 kts 155°
2026-04-26 23:56 30.79721 -88.32799 2549 ft 160 kts 155°
2026-04-26 23:56 30.78724 -88.32214 2554 ft 161 kts 155°
2026-04-26 23:57 30.77726 -88.31631 2551 ft 161 kts 155°
2026-04-26 23:57 30.76724 -88.31049 2553 ft 161 kts 155°
2026-04-26 23:57 30.75725 -88.30466 2551 ft 160 kts 155°
2026-04-26 23:57 30.74728 -88.29882 2552 ft 160 kts 154°
2026-04-26 23:58 30.73702 -88.29394 2554 ft 160 kts 171°
2026-04-26 23:58 30.72593 -88.29266 2550 ft 160 kts 175°
2026-04-26 23:58 30.71488 -88.29132 2552 ft 160 kts 175°
2026-04-26 23:58 30.70381 -88.29001 2549 ft 160 kts 175°
2026-04-26 23:59 30.69278 -88.28872 2550 ft 159 kts 175°
2026-04-26 23:59 30.68173 -88.28747 2552 ft 159 kts 175°
2026-04-26 23:59 30.67072 -88.28615 2551 ft 159 kts 175°
2026-04-26 23:59 30.65967 -88.28494 2551 ft 160 kts 175°
2026-04-27 00:00 30.64877 -88.28365 2551 ft 160 kts 175°
2026-04-27 00:00 30.63772 -88.28234 2549 ft 160 kts 175°
2026-04-27 00:00 30.62665 -88.28100 2552 ft 160 kts 175°
2026-04-27 00:00 30.61560 -88.27955 2550 ft 160 kts 175°
2026-04-27 00:01 30.60458 -88.27813 2554 ft 160 kts 175°
2026-04-27 00:01 30.59354 -88.27694 2552 ft 160 kts 175°
2026-04-27 00:01 30.58250 -88.27538 2554 ft 160 kts 175°
2026-04-27 00:01 30.57143 -88.27414 2551 ft 160 kts 175°
2026-04-27 00:02 30.56040 -88.27269 2555 ft 159 kts 175°
2026-04-27 00:02 30.54938 -88.27140 2553 ft 159 kts 174°
2026-04-27 00:02 30.53835 -88.26977 2547 ft 160 kts 174°
2026-04-27 00:02 30.52729 -88.26843 2552 ft 160 kts 176°
2026-04-27 00:03 30.51624 -88.26692 2554 ft 160 kts 174°
2026-04-27 00:03 30.50520 -88.26543 2554 ft 159 kts 175°
2026-04-27 00:03 30.49419 -88.26383 2570 ft 160 kts 173°
2026-04-27 00:03 30.48315 -88.26243 2568 ft 160 kts 175°
2026-04-27 00:04 30.47209 -88.26082 2561 ft 160 kts 174°
2026-04-27 00:04 30.46103 -88.25914 2564 ft 161 kts 175°
2026-04-27 00:04 30.44995 -88.25763 2558 ft 160 kts 174°
2026-04-27 00:04 30.43885 -88.25627 2560 ft 160 kts 174°
2026-04-27 00:05 30.42823 -88.25253 2557 ft 161 kts 162°
2026-04-27 00:05 30.41757 -88.24857 2561 ft 161 kts 160°
2026-04-27 00:05 30.40738 -88.24318 2558 ft 161 kts 157°
2026-04-27 00:05 30.39700 -88.23816 2561 ft 162 kts 158°
2026-04-27 00:06 30.38660 -88.23313 2558 ft 162 kts 159°
2026-04-27 00:06 30.37631 -88.22786 2561 ft 161 kts 160°
2026-04-27 00:06 30.36593 -88.22295 2559 ft 161 kts 158°
2026-04-27 00:06 30.35575 -88.21748 2557 ft 161 kts 158°
2026-04-27 00:07 30.34541 -88.21245 2564 ft 161 kts 154°
2026-04-27 00:07 30.33534 -88.20674 2560 ft 162 kts 158°
2026-04-27 00:07 30.32483 -88.20186 2562 ft 162 kts 160°
2026-04-27 00:07 30.31437 -88.19693 2565 ft 162 kts 157°
2026-04-27 00:08 30.30429 -88.19105 2563 ft 163 kts 159°
2026-04-27 00:08 30.29339 -88.18796 2567 ft 161 kts 172°
2026-04-27 00:08 30.28255 -88.18519 2563 ft 161 kts 172°
2026-04-27 00:08 30.27148 -88.18250 2563 ft 160 kts 166°
2026-04-27 00:09 30.26065 -88.17943 2561 ft 160 kts 167°
2026-04-27 00:09 30.24976 -88.17647 2568 ft 161 kts 168°
2026-04-27 00:09 30.23881 -88.17376 2563 ft 161 kts 167°
2026-04-27 00:09 30.22786 -88.17110 2493 ft 157 kts 171°
2026-04-27 00:10 30.21776 -88.17123 2312 ft 141 kts 217°
2026-04-27 00:10 30.21685 -88.17919 2316 ft 118 kts 324°
2026-04-27 00:10 30.22449 -88.17573 1639 ft 156 kts 68°
2026-04-27 00:10 30.22885 -88.16440 1347 ft 150 kts 72°
2026-04-27 00:11 30.23115 -88.15362 1363 ft 133 kts 80°
2026-04-27 00:11 30.23590 -88.14514 1268 ft 132 kts 45°
2026-04-27 00:11 30.24246 -88.13738 1104 ft 137 kts 44°
2026-04-27 00:11 30.24536 -88.13391 1086 ft 134 kts 48°
2026-04-27 00:12 30.24924 -88.12810 1122 ft 123 kts 67°
2026-04-27 00:12 30.25006 -88.11850 1092 ft 122 kts 98°
2026-04-27 00:12 30.24838 -88.11230 1139 ft 114 kts 116°
2026-04-27 00:12 30.24765 -88.10935 1247 ft 102 kts 98°
2026-04-27 00:13 30.24763 -88.10924 1251 ft 109 kts 108°
2026-04-27 00:13 30.24565 -88.10066 1210 ft 112 kts 127°
2026-04-27 00:14 30.23929 -88.09639 1271 ft 107 kts 111°
2026-04-27 00:14 30.24427 -88.09089 1049 ft 122 kts 352°
2026-04-27 00:14 30.24762 -88.09666 1039 ft 91 kts 262°
2026-04-27 00:14 30.24741 -88.10447 670 ft 109 kts 275°
2026-04-27 00:15 30.25132 -88.11147 385 ft 106 kts 300°
2026-04-27 00:15 30.25141 -88.11162 381 ft 106 kts 301°
2026-04-27 00:20 30.25221 -88.11305 321 ft 82 kts 299°
2026-04-27 00:20 30.25563 -88.11894 160 ft 85 kts 299°
2026-04-27 00:21 30.25855 -88.12409 18 ft 70 kts 301°
2026-04-27 00:21 30.26076 -88.12798 24 ft 64 kts 288°
2026-04-27 00:21 30.25863 -88.13247 67 ft 88 kts 183°
2026-04-27 00:21 30.25278 -88.13277 350 ft 83 kts 180°
2026-04-27 00:22 30.24888 -88.12946 632 ft 85 kts 107°
2026-04-27 00:22 30.24741 -88.12242 750 ft 90 kts 100°
2026-04-27 00:22 30.24651 -88.11532 689 ft 90 kts 101°
2026-04-27 00:22 30.24891 -88.10921 530 ft 95 kts 27°
2026-04-27 00:23 30.25222 -88.11315 358 ft 85 kts 298°
2026-04-27 00:23 30.25570 -88.11910 159 ft 92 kts 299°
2026-04-27 00:23 30.25891 -88.12473 9 ft 74 kts 301°
2026-04-27 00:23 30.25995 -88.12960 167 ft 71 kts 219°
2026-04-27 00:24 30.25465 -88.12927 246 ft 92 kts 165°
2026-04-27 00:24 30.25002 -88.12384 383 ft 102 kts 133°
2026-04-27 00:24 30.24517 -88.11727 450 ft 110 kts 132°
2026-04-27 00:24 30.24373 -88.10960 521 ft 103 kts 49°
2026-04-27 00:25 30.25037 -88.10998 383 ft 102 kts 317°
2026-04-27 00:25 30.25387 -88.11583 200 ft 79 kts 305°
2026-04-27 00:25 30.25680 -88.12097 109 ft 81 kts 303°
2026-04-27 00:25 30.25969 -88.12601 9 ft 64 kts 299°
2026-04-27 00:26 30.26148 -88.13005 33 ft 70 kts 272°
2026-04-27 00:26 30.25846 -88.13504 143 ft 92 kts 193°
2026-04-27 00:26 30.25206 -88.13463 304 ft 97 kts 176°
2026-04-27 00:26 30.24589 -88.13209 520 ft 96 kts 149°
2026-04-27 00:27 30.24182 -88.12541 581 ft 110 kts 111°
2026-04-27 00:27 30.24160 -88.11633 664 ft 114 kts 81°
2026-04-27 00:27 30.24370 -88.10768 543 ft 97 kts 93°
2026-04-27 00:27 30.24795 -88.10403 547 ft 86 kts 344°
2026-04-27 00:28 30.25038 -88.10943 378 ft 82 kts 286°
2026-04-27 00:28 30.25335 -88.11481 273 ft 78 kts 297°
2026-04-27 00:28 30.25629 -88.12012 151 ft 79 kts 297°
2026-04-27 00:28 30.25930 -88.12540 12 ft 71 kts 300°
2026-04-27 00:29 30.26144 -88.12928 15 ft 58 kts 283°
2026-04-27 00:29 30.25833 -88.13177 60 ft 81 kts 175°
2026-04-27 00:29 30.25383 -88.12845 352 ft 82 kts 125°
2026-04-27 00:29 30.25128 -88.12140 477 ft 99 kts 112°
2026-04-27 00:30 30.24985 -88.11472 462 ft 82 kts 79°
2026-04-27 00:30 30.25387 -88.11364 268 ft 78 kts 283°
2026-04-27 00:30 30.25562 -88.11895 140 ft 63 kts 296°
2026-04-27 00:30 30.25836 -88.12377 33 ft 67 kts 299°
2026-04-27 00:31 30.26043 -88.12734 8 ft 34 kts 304°
2026-04-27 00:31 30.26081 -88.12774 9 ft 21 kts 149°
2026-04-27 00:31 30.26065 -88.12763 9 ft 0 kts 148°
2026-04-27 00:32 30.25989 -88.12645 6 ft 52 kts 125°
2026-04-27 00:33 30.25870 -88.12505 7 ft 11 kts 173°
2026-04-27 00:33 30.25806 -88.12469 7 ft 5 kts 108°
2026-04-27 00:33 30.25808 -88.12461 7 ft 3 kts 22°
2026-04-27 00:33 30.25811 -88.12459 6 ft 0 kts 33°
2026-04-27 00:37 30.25855 -88.12408 6 ft 22 kts
2026-04-27 00:38 30.25901 -88.12745 18 ft 73 kts 260°
2026-04-27 00:38 30.25636 -88.13356 146 ft 98 kts 222°
2026-04-27 00:38 30.25056 -88.13433 484 ft 99 kts 128°
2026-04-27 00:38 30.25295 -88.12645 484 ft 134 kts 39°
2026-04-27 00:39 30.26099 -88.11979 483 ft 152 kts 32°
2026-04-27 00:39 30.26742 -88.11576 521 ft 154 kts 17°
2026-04-27 00:39 30.27690 -88.11300 1073 ft 119 kts 13°
2026-04-27 00:39 30.28472 -88.11005 1956 ft 70 kts 11°
2026-04-27 00:40 30.29034 -88.10784 2108 ft 95 kts 18°
2026-04-27 00:40 30.29725 -88.10568 2278 ft 112 kts
2026-04-27 00:40 30.30496 -88.10362 2596 ft 110 kts
2026-04-27 00:40 30.31315 -88.10159 2633 ft 135 kts
2026-04-27 00:41 30.32298 -88.09942 2636 ft 151 kts
2026-04-27 00:41 30.33017 -88.09803 2621 ft 158 kts
2026-04-27 00:41 30.34110 -88.09591 2610 ft 159 kts
2026-04-27 00:41 30.35192 -88.09420 2611 ft 159 kts
2026-04-27 00:42 30.36283 -88.09235 2608 ft 158 kts
2026-04-27 00:42 30.37384 -88.09045 2609 ft 158 kts
2026-04-27 00:42 30.38454 -88.08843 2608 ft 158 kts
2026-04-27 00:42 30.39553 -88.08647 2608 ft 158 kts
2026-04-27 00:43 30.40637 -88.08449 2606 ft 158 kts
2026-04-27 00:43 30.41721 -88.08265 2610 ft 158 kts
2026-04-27 00:43 30.42809 -88.08083 2608 ft 158 kts
2026-04-27 00:43 30.43896 -88.07884 2622 ft 158 kts
2026-04-27 00:44 30.44983 -88.07697 2615 ft 158 kts
2026-04-27 00:44 30.46040 -88.07504 2603 ft 157 kts
2026-04-27 00:44 30.47124 -88.07342 2610 ft 157 kts
2026-04-27 00:44 30.48170 -88.07009 2609 ft 157 kts 26°
2026-04-27 00:45 30.49095 -88.06316 2607 ft 159 kts 31°
2026-04-27 00:45 30.50014 -88.05607 2612 ft 159 kts 31°
2026-04-27 00:45 30.50930 -88.04924 2601 ft 151 kts 30°
2026-04-27 00:45 30.51789 -88.04271 2542 ft 146 kts 31°
2026-04-27 00:46 30.52639 -88.03621 2403 ft 147 kts 30°
2026-04-27 00:46 30.53479 -88.02991 2295 ft 146 kts 30°
2026-04-27 00:46 30.54349 -88.02348 2126 ft 145 kts 29°
2026-04-27 00:46 30.55163 -88.01741 1941 ft 132 kts 30°
2026-04-27 00:47 30.55990 -88.01321 1693 ft 132 kts 359°
2026-04-27 00:47 30.56781 -88.01677 1627 ft 117 kts 327°
2026-04-27 00:47 30.57462 -88.02101 1308 ft 106 kts 316°
2026-04-27 00:47 30.58023 -88.02657 936 ft 99 kts 317°
2026-04-27 00:48 30.58525 -88.03156 720 ft 98 kts 313°
2026-04-27 00:48 30.59009 -88.03675 566 ft 91 kts 314°
2026-04-27 00:48 30.59467 -88.04142 421 ft 85 kts 317°
2026-04-27 00:48 30.59918 -88.04565 338 ft 83 kts 318°
2026-04-27 00:49 30.60358 -88.05019 228 ft 86 kts 315°
2026-04-27 00:49 30.60781 -88.05443 141 ft 74 kts 313°
2026-04-27 00:49 30.61179 -88.05848 74 ft 78 kts 315°
2026-04-27 00:49 30.61526 -88.06192 21 ft 52 kts 314°
2026-04-27 00:50 30.61882 -88.06549 55 ft 88 kts 314°
2026-04-27 00:50 30.62690 -88.07357 27 ft 51 kts 317°
2026-04-27 00:50 30.62898 -88.07584 25 ft 33 kts 317°
2026-04-27 00:51 30.63048 -88.07746 27 ft 33 kts 323°
2026-04-27 00:51 30.63195 -88.07870 30 ft 12 kts 322°
2026-04-27 00:51 30.63272 -88.07906 31 ft 15 kts 43°
2026-04-27 00:51 30.63329 -88.07828 32 ft 12 kts 53°
2026-04-27 00:52 30.63385 -88.07738 34 ft 15 kts 54°
2026-04-27 00:52 30.63468 -88.07615 33 ft 24 kts 55°
2026-04-27 00:52 30.63580 -88.07527 33 ft 15 kts 336°
2026-04-27 00:52 30.63654 -88.07562 32 ft 8 kts 337°
2026-04-27 00:53 30.63638 -88.07616 32 ft 7 kts 220°
2026-04-27 00:53 30.63576 -88.07618 32 ft 0 kts 154°